This is the latest recevied weather packets stored in our database for station/object W5GMO. If no packets are shown the sender has not sent any weather packets the latest 10 day(s).
| Time | Temp. | Humidity | Pressure | Rain* | Wind** | Luminosity | Snow |
|---|---|---|---|---|---|---|---|
| 1787918921 | 23.89° C | 1% | 1015.9 hPa | 0 mm | - | 195 W/m² | - |
| 1787918617 | 23.33° C | 1% | 1015.8 hPa | 0 mm | - | 157 W/m² | - |
| 1787918314 | 23.33° C | 1% | 1015.4 hPa | 0 mm | - | 94 W/m² | - |
| 1787918008 | 23.33° C | 1% | 1015.5 hPa | 0 mm | - | 49 W/m² | - |
| 1787917703 | 23.33° C | 1% | 1015.5 hPa | 0 mm | - | 38 W/m² | - |
| 1787917400 | 23.33° C | 1% | 1015.4 hPa | 0 mm | - | 42 W/m² | - |
| 1787917100 | 23.33° C | 1% | 1015.3 hPa | 0 mm | - | 61 W/m² | - |
| 1787916790 | 23.33° C | 1% | 1015.3 hPa | 0 mm | - | 94 W/m² | - |
| 1787916489 | 22.78° C | 1% | 1015 hPa | 0 mm | - | 77 W/m² | - |
| 1787916185 | 22.78° C | 1% | 1015.2 hPa | 0 mm | - | 63 W/m² | - |
| 1787915880 | 22.78° C | 1% | 1015.3 hPa | 0 mm | - | 45 W/m² | - |
| 1787915575 | 22.78° C | 1% | 1015.2 hPa | 0 mm | - | 39 W/m² | - |
| 1787915274 | 22.22° C | 1% | 1015.2 hPa | 0 mm | - | 30 W/m² | - |
| 1787914969 | 22.22° C | 1% | 1015.4 hPa | 0 mm | - | 20 W/m² | - |
| 1787914668 | 22.22° C | 1% | 1015 hPa | 0 mm | - | 17 W/m² | - |
| 1787914364 | 22.78° C | 1% | 1015.1 hPa | 0 mm | - | 11 W/m² | - |
| 1787914064 | 22.78° C | 1% | 1014.9 hPa | 0 mm | - | 8 W/m² | - |
| 1787913762 | 22.78° C | 1% | 1014.8 hPa | 0 mm | - | 5 W/m² | - |
| 1787913458 | 22.78° C | 1% | 1014.7 hPa | 0 mm | - | 3 W/m² | - |
| 1787913151 | 22.78° C | 1% | 1014.6 hPa | 0 mm | - | 2 W/m² | - |
| 1787912850 | 23.33° C | 1% | 1014.5 hPa | 0 mm | - | 1 W/m² | - |
| 1787912545 | 23.33° C | 1% | 1014.5 hPa | 0 mm | - | 0 W/m² | - |
| 1787912244 | 23.33° C | 1% | 1014.3 hPa | 0 mm | - | 0 W/m² | - |
| 1787911939 | 23.33° C | 1% | 1014.3 hPa | 0 mm | - | 0 W/m² | - |
| 1787911635 | 23.33° C | 1% | 1014.2 hPa | 0 mm | - | 0 W/m² | - |
* Rain latest hour (hover to see other rain measurements)
** Current wind speed in m/s (hover to see current wind gust speed)